User: anonymous   Login
Location: Epalinges
(46.5518°N, 6.6683°E)
Time: 02:18:28
(UTC+00:00)
Language:

NOSS 3-2 (A) - Orbit

View from above orbital plane
View from above orbital plane
View from above satellite
View from above satellite

Ground track
Ground track

The orbit data is extracted from the following two-line orbital elements,

1 28095U 03054A   21252.11513550 0.00000000  00000-0  00000-0 0    02
2 28095  63.4137 322.9566 0445538   0.1489 359.8511 13.41406161    03
Epoch (UTC): 09 September 2021 02:45:47
Eccentricity: 0.0445538
inclination: 63.4137°
perigee height: 770 km
apogee height: 1437 km
right ascension of ascending node: 322.9566°
argument of perigee: 0.1489°
revolutions per day: 13.41406161
mean anomaly at epoch: 359.8511°
orbit number at epoch: 0

The dashed part of the orbit path shows where the satellite is in the earth's shadow,  

DLR